North Bend, OR

4:36 AM PST on December 08, 2016 (GMT -0800)
North Bend Municipal

Weather History for KOTH - September, 2014

Change the Weather History Date:

Friday, September 5, 2014

  Actual Average Record
Temperature  
Mean Temperature 71 °F 58 °F  
Max Temperature 93 °F 66 °F 93 °F (2014)
Min Temperature 48 °F 52 °F 40 °F (1914)
Degree Days  
Heating Degree Days 0 6  
Month to date heating degree days 11 30  
Since 1 July heating degree days 276 409  
Cooling Degree Days 6 0  
Month to date cooling degree days 6 0  
Year to date cooling degree days 18 1  
Growing Degree Days 20 (Base 50)    
Moisture  
Dew Point 50 °F    
Average Humidity 77    
Maximum Humidity 100    
Minimum Humidity 16    
Precipitation  
Precipitation 0.00 in 0.04 in 0.58 in (2009)
Month to date precipitation 0.00 0.18  
Year to date precipitation 22.45 37.42  
Sea Level Pressure  
Sea Level Pressure 29.89 in    
Wind  
Wind Speed 6 mph (NW)    
Max Wind Speed 18 mph    
Max Gust Speed 17 mph    
Visibility 9 miles    
Events      
T = Trace of Precipitation, MM = Missing Value Source: NWS Daily Summary

Daily Weather History Graph

Daily Weather History Graph

Search for Another Location

Airport or City:

Trip Planner

Search our weather history database for the weather conditions in past years. The results will help you decide how hot, cold, wet, or windy it might be!

Date:

Astronomy

Sep. 05, 2014 Rise Set
Actual Time 6:45 AM PDT 7:44 PM PDT
Civil Twilight 6:16 AM PDT 8:14 PM PDT
Nautical Twilight 5:41 AM PDT 8:48 PM PDT
Astronomical Twilight 5:04 AM PDT 9:25 PM PDT
Moon 5:22 PM PDT (9/5) 2:41 AM PDT (9/5)
Length of Visible Light 13h 57m
Length of Day
12h 59m
Waxing Gibbous, 85% of the Moon is Illuminated
Sep 5
Waxing Gibbous
Sep 8
Full
Sep 15
Last Quarter
Sep 23
New
Oct 1
First Quarter

Hourly Weather History & Observations

Time (PDT) Temp. Dew Point Humidity Pressure Visibility Wind Dir Wind Speed Gust Speed Precip Events Conditions
12:15 AM 53.6 °F 51.8 °F 94% - 5.0 mi Calm Calm - N/A   Clear
12:35 AM 53.6 °F 51.8 °F 94% - 5.0 mi Calm Calm - N/A   Clear
12:55 AM 53.6 °F 53.6 °F 100% - 5.0 mi Calm Calm - N/A   Clear
1:15 AM 53.6 °F 51.8 °F 94% - 5.0 mi Calm Calm - N/A   Clear
1:35 AM 53.6 °F 53.6 °F 100% - 7.0 mi Calm Calm - N/A   Clear
1:55 AM 51.8 °F 51.8 °F 100% - 7.0 mi Calm Calm - N/A   Clear
2:15 AM 53.6 °F 53.6 °F 100% - 7.0 mi Calm Calm - N/A   Clear
2:35 AM 51.8 °F 51.8 °F 100% - 7.0 mi Calm Calm - N/A   Clear
2:55 AM 51.8 °F 51.8 °F 100% - 9.0 mi Calm Calm - N/A   Clear
3:15 AM 51.8 °F 51.8 °F 100% - 5.0 mi Calm Calm - N/A   Clear
3:35 AM 51.8 °F 51.8 °F 100% - 7.0 mi Calm Calm - N/A   Clear
3:55 AM 51.8 °F 51.8 °F 100% - 10.0 mi Calm Calm - N/A   Clear
4:15 AM 51.8 °F 51.8 °F 100% - 9.0 mi Calm Calm - N/A   Clear
4:35 AM 50.0 °F 50.0 °F 100% - 10.0 mi Calm Calm - N/A   Clear
4:55 AM 50.0 °F 50.0 °F 100% - 10.0 mi Calm Calm - N/A   Clear
5:15 AM 51.8 °F 51.8 °F 100% - 10.0 mi Calm Calm - N/A   Clear
5:35 AM 50.0 °F 50.0 °F 100% - 4.0 mi Calm Calm - N/A   Clear
5:55 AM 50.0 °F 50.0 °F 100% - 1.8 mi Calm Calm - N/A   Clear
6:15 AM 50.0 °F 50.0 °F 100% - 1.0 mi Calm Calm - N/A   Clear
6:35 AM 51.8 °F 51.8 °F 100% - 5.0 mi Calm Calm - N/A   Partly Cloudy
7:15 AM 51.8 °F 51.8 °F 100% - 10.0 mi Calm Calm - N/A   Clear
7:35 AM 53.6 °F 53.6 °F 100% - 10.0 mi Calm Calm - N/A   Clear
7:55 AM 55.4 °F 55.4 °F 100% - 10.0 mi North 4.6 mph - N/A   Clear
8:15 AM 57.2 °F 55.4 °F 94% - 10.0 mi Calm Calm - N/A   Clear
8:35 AM 60.8 °F 55.4 °F 82% - 10.0 mi Calm Calm - N/A   Clear
8:55 AM 66.2 °F 51.8 °F 60% - 10.0 mi North 4.6 mph - N/A   Clear
9:15 AM 69.8 °F 48.2 °F 46% - 10.0 mi NE 4.6 mph - N/A   Clear
9:35 AM 71.6 °F 50.0 °F 46% - 10.0 mi North 3.5 mph - N/A   Clear
9:55 AM 78.8 °F 44.6 °F 30% - 10.0 mi East 10.4 mph 17.3 mph N/A   Clear
10:15 AM 80.6 °F 42.8 °F 26% - 10.0 mi East 15.0 mph 18.4 mph N/A   Clear
10:35 AM 80.6 °F 42.8 °F 26% - 10.0 mi East 11.5 mph 18.4 mph N/A   Clear
10:55 AM 82.4 °F 42.8 °F 25% - 10.0 mi East 10.4 mph 16.1 mph N/A   Clear
11:15 AM 84.2 °F 41.0 °F 22% - 10.0 mi East 9.2 mph - N/A   Clear
11:35 AM 86.0 °F 41.0 °F 20% 29.87 in 10.0 mi East 11.5 mph - N/A   Clear
11:55 AM 87.8 °F 39.2 °F 18% 29.86 in 10.0 mi ENE 10.4 mph - N/A   Clear
12:15 PM 89.6 °F 39.2 °F 17% 29.86 in 10.0 mi ENE 10.4 mph - N/A   Clear
12:35 PM 89.6 °F 39.2 °F 17% 29.86 in 10.0 mi East 6.9 mph - N/A   Clear
12:55 PM 91.4 °F 39.2 °F 16% 29.85 in 10.0 mi East 8.1 mph - N/A   Clear
1:15 PM 91.4 °F 39.2 °F 16% 29.85 in 10.0 mi ENE 8.1 mph - N/A   Clear
1:35 PM 91.4 °F 39.2 °F 16% 29.84 in 10.0 mi NNE 5.8 mph - N/A   Clear
1:55 PM 71.6 °F 50.0 °F 46% 29.85 in 10.0 mi West 18.4 mph - N/A   Clear
2:35 PM 64.4 °F 50.0 °F 59% 29.86 in 10.0 mi West 17.3 mph - N/A   Clear
3:15 PM 62.6 °F 51.8 °F 68% 29.86 in 10.0 mi WNW 12.7 mph - N/A   Clear
3:35 PM 60.8 °F 51.8 °F 72% 29.86 in 10.0 mi WNW 11.5 mph - N/A   Clear
3:55 PM 60.8 °F 51.8 °F 72% 29.87 in 10.0 mi West 13.8 mph - N/A   Clear
4:15 PM 60.8 °F 51.8 °F 72% 29.87 in 10.0 mi WNW 13.8 mph - N/A   Clear
4:35 PM 60.8 °F 51.8 °F 72% 29.88 in 10.0 mi West 12.7 mph - N/A   Clear
4:55 PM 60.8 °F 51.8 °F 72% 29.88 in 10.0 mi West 13.8 mph 17.3 mph N/A   Clear
5:15 PM 59.0 °F 51.8 °F 77% 29.88 in 10.0 mi West 11.5 mph - N/A   Clear
5:35 PM 59.0 °F 51.8 °F 77% 29.88 in 10.0 mi West 10.4 mph - N/A   Clear
5:55 PM 59.0 °F 51.8 °F 77% 29.88 in 10.0 mi West 9.2 mph - N/A   Clear
6:15 PM 57.2 °F 51.8 °F 82% 29.89 in 10.0 mi WNW 8.1 mph - N/A   Clear
6:35 PM 57.2 °F 51.8 °F 82% 29.89 in 10.0 mi NW 8.1 mph - N/A   Clear
6:55 PM 55.4 °F 53.6 °F 94% 29.89 in 10.0 mi WNW 6.9 mph - N/A   Clear
7:15 PM 55.4 °F 53.6 °F 94% 29.89 in 10.0 mi WNW 6.9 mph - N/A   Clear
7:35 PM 53.6 °F 53.6 °F 100% 29.90 in 10.0 mi NW 8.1 mph - N/A   Clear
7:55 PM 53.6 °F 53.6 °F 100% 29.90 in 10.0 mi WNW 8.1 mph - N/A   Clear
8:15 PM 53.6 °F 51.8 °F 94% 29.90 in 10.0 mi West 6.9 mph - N/A   Clear
8:35 PM 53.6 °F 53.6 °F 100% 29.90 in 10.0 mi West 4.6 mph - N/A   Clear
8:55 PM 53.6 °F 51.8 °F 94% 29.91 in 10.0 mi SW 4.6 mph - N/A   Clear
9:35 PM 51.8 °F 51.8 °F 100% 29.92 in 10.0 mi SW 3.5 mph - N/A   Clear
9:55 PM 51.8 °F 51.8 °F 100% 29.92 in 10.0 mi SSW 3.5 mph - N/A   Clear
10:15 PM 51.8 °F 51.8 °F 100% 29.93 in 10.0 mi Calm Calm - N/A   Clear
10:35 PM 51.8 °F 50.0 °F 94% 29.93 in 10.0 mi Calm Calm - N/A   Clear
10:55 PM 51.8 °F 50.0 °F 94% 29.93 in 10.0 mi Calm Calm - N/A   Clear
11:15 PM 50.0 °F 50.0 °F 100% 29.93 in 10.0 mi SW 3.5 mph - N/A   Partly Cloudy
11:35 PM 51.8 °F 51.8 °F 100% 29.93 in 10.0 mi WSW 3.5 mph - N/A   Mostly Cloudy
11:55 PM 51.8 °F 51.8 °F 100% 29.93 in 10.0 mi Calm Calm - N/A   Overcast